Regional Weather Roundup
Issued by NWS

Home | Current Version | Previous Version | Text Only | Print | Product List | Glossary Off
Versions: 1 2 3 4 5 6 7 8 9 10 11 12 13 14 15 16 17 18 19 20 21 22 23 24 25 26 27 28 29 30 31 32 33 34 35 36 37 38 39 40 41 42 43 44 45 46 47 48 49 50

000
ASUS43 KFSD 220310
RWRSD

WEATHER ROUNDUP FOR SOUTH DAKOTA
NATIONAL WEATHER SERVICE SIOUX FALLS SD
1000 PM CDT SAT APR 21 2018

NOTE: "FAIR" INDICATES FEW OR NO CLOUDS BELOW 12,000 FEET WITH NO
SIGNIFICANT WEATHER AND/OR OBSTRUCTIONS TO VISIBILITY.


SDZ001>005-009-010-012>017-220400-
NORTHWEST AND NORTH CENTRAL SOUTH DAKOTA

CITY           SKY/WX    TMP DP  RH WIND       PRES   REMARKS
BUFFALO          N/A     46  36  68 SE14      30.02R
FAITH            N/A     42  38  85 S22       30.13S
MOBRIDGE       MOCLDY    43  35  73 SE10      30.20R
$$

SDZ012>016-024>037-041>051-057-063-072>074-220400-
SOUTHWEST AND SOUTH CENTRAL SOUTH DAKOTA

CITY           SKY/WX    TMP DP  RH WIND       PRES   REMARKS
RAPID CTY ARPT CLEAR     40  35  83 SE12      30.13R
PIERRE         PTCLDY    41  38  89 SE12      30.22R
CUSTER         CLEAR     34  31  88 SW3       30.13S
ELLSWORTH AFB  CLEAR    N/A N/A N/A S17       30.12R
PHILIP         PTCLDY    42  37  82 CALM      30.20R
PINE RIDGE     CLEAR     40  36  86 SE6       30.18S
SPEARFISH      FAIR      46  37  71 CALM      30.08R
WINNER         CLOUDY    41  35  79 SE5       30.26S
$$

SDZ004>011-016>023-039-040-220400-
NORTHEAST SOUTH DAKOTA

CITY           SKY/WX    TMP DP  RH WIND       PRES   REMARKS
ABERDEEN       PTCLDY    39  33  79 S5        30.28R
WATERTOWN      CLEAR     42  33  70 SE5       30.29S
BROOKINGS      CLEAR     39  32  76 SE7         N/A
SISSETON         N/A     44  37  76 S10       30.30R
$$

SDZ017-020-022-023-036>040-048>070-220400-
SOUTHEAST SOUTH DAKOTA

CITY           SKY/WX    TMP DP  RH WIND       PRES   REMARKS
SIOUX FALLS    CLOUDY    43  34  70 E8        30.30S
HURON          CLEAR     42  35  76 SE7       30.28S
CHAMBERLAIN    PTCLDY    42  40  93 CALM      30.27R
MITCHELL       PTCLDY    40  35  83 SE7       30.29R
YANKTON        CLOUDY    47  38  71 E7        30.28S
$$

ABBREVIATIONS USED IN REMARKS
   TC - TEMPERATURE IN CELSIUS
  WCI - WIND CHILL INDEX
   HX - HEAT INDEX
  VSB - VISIBILITY




USA.gov is the U.S. government's official web portal to all federal, state and local government web resources and services.